Time,TemperatureF,DewpointF,PressureIn,WindDirection,WindDirectionDegrees,WindSpeedMPH,WindSpeedGustMPH,Humidity,HourlyPrecipIn,Conditions,Clouds,dailyrainin,SoftwareType,DateUTC
2013-07-13 00:00:00,72.8,72.2,29.91,ENE,58,0.0,3.0,98,0.00,,---,0.13,VWS V14.01,2013-07-13 04:00:00,
2013-07-13 00:01:00,72.8,72.2,29.91,ENE,58,0.0,3.0,98,0.00,,---,0.13,VWS V14.01,2013-07-13 04:01:00,
2013-07-13 00:02:00,72.8,72.2,29.91,ENE,58,0.0,3.0,98,0.00,,---,0.13,VWS V14.01,2013-07-13 04:02:00,
2013-07-13 00:07:00,72.8,72.2,29.91,ENE,73,0.0,0.0,98,0.00,,---,0.00,VWS V14.01,2013-07-13 04:07:00,
2013-07-13 00:10:00,72.7,72.1,29.91,NE,44,0.0,2.0,98,0.00,,---,0.00,VWS V14.01,2013-07-13 04:10:00,
2013-07-13 00:12:00,72.7,72.1,29.91,NE,44,0.0,2.0,98,0.00,,---,0.00,VWS V14.01,2013-07-13 04:12:00,
2013-07-13 00:17:00,72.7,72.1,29.91,ENE,58,0.0,2.0,98,0.00,,---,0.00,VWS V14.01,2013-07-13 04:17:00,
2013-07-13 00:20:00,72.7,72.1,29.92,ENE,58,0.0,2.0,98,0.00,,---,0.00,VWS V14.01,2013-07-13 04:20:00,
2013-07-13 00:22:00,72.7,72.1,29.92,ENE,58,0.0,2.0,98,0.00,,---,0.00,VWS V14.01,2013-07-13 04:22:00,
2013-07-13 00:27:00,72.7,72.1,29.92,ENE,58,0.0,1.0,98,0.00,,---,0.00,VWS V14.01,2013-07-13 04:27:00,
2013-07-13 00:30:00,72.7,72.1,29.92,ENE,58,0.0,1.0,98,0.00,,---,0.00,VWS V14.01,2013-07-13 04:30:00,
2013-07-13 00:32:00,72.7,72.1,29.92,ENE,58,0.0,1.0,98,0.00,,---,0.00,VWS V14.01,2013-07-13 04:32:00,
2013-07-13 00:37:00,72.7,72.1,29.92,ENE,58,0.0,0.0,98,0.00,,---,0.00,VWS V14.01,2013-07-13 04:37:00,
2013-07-13 00:40:00,72.7,72.1,29.92,ENE,58,0.0,0.0,98,0.00,,---,0.00,VWS V14.01,2013-07-13 04:40:00,
2013-07-13 00:42:00,72.7,72.1,29.92,ENE,58,0.0,0.0,98,0.00,,---,0.00,VWS V14.01,2013-07-13 04:42:00,
2013-07-13 00:47:00,72.7,72.1,29.92,ENE,58,0.0,0.0,98,0.00,,---,0.00,VWS V14.01,2013-07-13 04:47:00,
2013-07-13 00:50:00,72.5,71.9,29.91,ENE,58,0.0,2.0,98,0.00,,---,0.00,VWS V14.01,2013-07-13 04:50:00,
2013-07-13 00:52:00,72.5,71.9,29.91,ENE,58,0.0,2.0,98,0.00,,---,0.00,VWS V14.01,2013-07-13 04:52:00,
2013-07-13 00:57:00,72.5,71.9,29.91,ENE,58,0.0,2.0,98,0.00,,---,0.00,VWS V14.01,2013-07-13 04:57:00,
2013-07-13 01:00:00,72.5,71.9,29.92,ENE,58,0.0,2.0,98,0.00,,---,0.00,VWS V14.01,2013-07-13 05:00:00,
2013-07-13 01:02:00,72.3,71.7,29.91,ENE,58,0.0,2.0,98,0.00,,---,0.00,VWS V14.01,2013-07-13 05:02:00,
2013-07-13 01:07:00,72.5,71.9,29.92,ENE,58,0.0,0.0,98,0.00,,---,0.00,VWS V14.01,2013-07-13 05:07:00,
2013-07-13 01:10:00,72.5,72.2,29.92,ENE,58,0.0,0.0,99,0.00,,---,0.00,VWS V14.01,2013-07-13 05:10:00,
2013-07-13 01:12:00,72.5,71.9,29.92,ENE,58,0.0,0.0,98,0.00,,---,0.00,VWS V14.01,2013-07-13 05:12:00,
2013-07-13 01:17:00,72.5,72.2,29.92,ENE,58,0.0,0.0,99,0.00,,---,0.00,VWS V14.01,2013-07-13 05:17:00,
2013-07-13 01:20:00,72.5,71.9,29.92,ENE,58,0.0,0.0,98,0.00,,---,0.00,VWS V14.01,2013-07-13 05:20:00,
2013-07-13 01:22:00,72.5,71.9,29.92,ENE,58,0.0,0.0,98,0.00,,---,0.00,VWS V14.01,2013-07-13 05:22:00,
2013-07-13 01:27:00,72.5,71.9,29.92,NNE,32,0.0,2.0,98,0.00,,---,0.00,VWS V14.01,2013-07-13 05:27:00,
2013-07-13 01:30:00,72.3,71.7,29.92,NNE,32,0.0,2.0,98,0.00,,---,0.00,VWS V14.01,2013-07-13 05:30:00,
2013-07-13 01:32:00,72.3,71.7,29.92,NNE,32,0.0,2.0,98,0.00,,---,0.00,VWS V14.01,2013-07-13 05:32:00,
2013-07-13 01:37:00,72.3,71.7,29.92,NNE,32,0.0,0.0,98,0.00,,---,0.00,VWS V14.01,2013-07-13 05:37:00,
2013-07-13 01:40:00,72.3,71.7,29.92,NE,35,0.0,0.0,98,0.00,,---,0.00,VWS V14.01,2013-07-13 05:40:00,
2013-07-13 01:42:00,72.3,71.7,29.92,NE,35,0.0,0.0,98,0.00,,---,0.00,VWS V14.01,2013-07-13 05:42:00,
2013-07-13 01:47:00,72.3,71.7,29.92,NE,35,0.0,0.0,98,0.00,,---,0.00,VWS V14.01,2013-07-13 05:47:00,
2013-07-13 01:50:00,72.3,71.7,29.93,NE,35,0.0,0.0,98,0.00,,---,0.00,VWS V14.01,2013-07-13 05:50:00,
2013-07-13 01:52:00,72.3,71.7,29.93,NE,35,0.0,0.0,98,0.00,,---,0.00,VWS V14.01,2013-07-13 05:52:00,
2013-07-13 01:57:00,72.3,71.7,29.93,NE,35,0.0,0.0,98,0.00,,---,0.00,VWS V14.01,2013-07-13 05:57:00,
2013-07-13 02:00:00,72.3,71.7,29.94,NE,35,0.0,0.0,98,0.00,,---,0.00,VWS V14.01,2013-07-13 06:00:00,
2013-07-13 02:02:00,72.3,71.7,29.93,NE,35,0.0,0.0,98,0.00,,---,0.00,VWS V14.01,2013-07-13 06:02:00,
2013-07-13 02:06:00,72.3,71.7,29.94,NE,35,0.0,0.0,98,0.00,,---,0.00,VWS V14.01,2013-07-13 06:06:00,
2013-07-13 02:10:00,72.3,71.7,29.94,NE,35,0.0,0.0,98,0.00,,---,0.00,VWS V14.01,2013-07-13 06:10:00,
2013-07-13 02:11:00,72.3,71.7,29.94,NE,35,0.0,0.0,98,0.00,,---,0.00,VWS V14.01,2013-07-13 06:11:00,
2013-07-13 02:16:00,72.3,71.7,29.94,NE,35,0.0,0.0,98,0.00,,---,0.00,VWS V14.01,2013-07-13 06:16:00,
2013-07-13 02:20:00,72.3,72.0,29.94,NE,35,0.0,0.0,99,0.00,,---,0.00,VWS V14.01,2013-07-13 06:20:00,
2013-07-13 02:21:00,72.3,72.0,29.94,NE,35,0.0,0.0,99,0.00,,---,0.00,VWS V14.01,2013-07-13 06:21:00,
2013-07-13 02:26:00,72.3,72.0,29.94,NE,35,0.0,0.0,99,0.00,,---,0.00,VWS V14.01,2013-07-13 06:26:00,
2013-07-13 02:30:00,72.3,72.3,29.93,NE,35,0.0,0.0,100,0.00,,---,0.00,VWS V14.01,2013-07-13 06:30:00,
2013-07-13 02:31:00,72.3,72.0,29.94,NE,35,0.0,0.0,99,0.00,,---,0.00,VWS V14.01,2013-07-13 06:31:00,
2013-07-13 02:36:00,72.3,72.3,29.93,NE,35,0.0,0.0,100,0.00,,---,0.00,VWS V14.01,2013-07-13 06:36:00,
2013-07-13 02:40:00,72.3,72.0,29.93,NE,35,0.0,0.0,99,0.00,,---,0.00,VWS V14.01,2013-07-13 06:40:00,
2013-07-13 02:41:00,72.3,72.0,29.93,NE,35,0.0,0.0,99,0.00,,---,0.00,VWS V14.01,2013-07-13 06:41:00,
2013-07-13 02:46:00,72.1,71.8,29.93,NE,35,0.0,1.0,99,0.00,,---,0.00,VWS V14.01,2013-07-13 06:46:00,
2013-07-13 02:50:00,72.1,71.5,29.93,NE,35,0.0,1.0,98,0.00,,---,0.00,VWS V14.01,2013-07-13 06:50:00,
2013-07-13 02:51:00,72.1,71.5,29.93,NE,35,0.0,1.0,98,0.00,,---,0.00,VWS V14.01,2013-07-13 06:51:00,
2013-07-13 02:56:00,72.1,71.8,29.93,ENE,64,0.0,1.0,99,0.00,,---,0.00,VWS V14.01,2013-07-13 06:56:00,
2013-07-13 03:00:00,72.0,71.7,29.93,ENE,64,0.0,1.0,99,0.00,,---,0.00,VWS V14.01,2013-07-13 07:00:00,
2013-07-13 03:01:00,72.0,71.7,29.93,ENE,64,0.0,1.0,99,0.00,,---,0.00,VWS V14.01,2013-07-13 07:01:00,
2013-07-13 03:06:00,72.0,71.7,29.93,ENE,64,0.0,0.0,99,0.00,,---,0.00,VWS V14.01,2013-07-13 07:06:00,
2013-07-13 03:10:00,72.1,71.8,29.93,ENE,64,0.0,1.0,99,0.00,,---,0.00,VWS V14.01,2013-07-13 07:10:00,
2013-07-13 03:11:00,72.1,71.8,29.93,ENE,64,0.0,1.0,99,0.00,,---,0.00,VWS V14.01,2013-07-13 07:11:00,
2013-07-13 03:16:00,72.1,71.8,29.93,ENE,64,0.0,2.0,99,0.00,,---,0.00,VWS V14.01,2013-07-13 07:16:00,
2013-07-13 03:20:00,72.1,71.8,29.93,ENE,64,0.0,2.0,99,0.00,,---,0.00,VWS V14.01,2013-07-13 07:20:00,
2013-07-13 03:21:00,72.1,71.8,29.93,ENE,64,0.0,2.0,99,0.00,,---,0.00,VWS V14.01,2013-07-13 07:21:00,
2013-07-13 03:26:00,72.1,71.8,29.93,ENE,64,0.0,0.0,99,0.00,,---,0.00,VWS V14.01,2013-07-13 07:26:00,
2013-07-13 03:30:00,72.1,72.1,29.93,ENE,64,0.0,0.0,100,0.00,,---,0.00,VWS V14.01,2013-07-13 07:30:00,
2013-07-13 03:31:00,72.1,72.1,29.93,ENE,64,0.0,0.0,100,0.00,,---,0.00,VWS V14.01,2013-07-13 07:31:00,
2013-07-13 03:36:00,72.1,72.1,29.93,ENE,64,0.0,0.0,100,0.00,,---,0.00,VWS V14.01,2013-07-13 07:36:00,
2013-07-13 03:40:00,72.1,71.8,29.93,ENE,64,0.0,0.0,99,0.00,,---,0.00,VWS V14.01,2013-07-13 07:40:00,
2013-07-13 03:41:00,72.1,72.1,29.93,ENE,64,0.0,0.0,100,0.00,,---,0.00,VWS V14.01,2013-07-13 07:41:00,
2013-07-13 03:46:00,72.1,71.8,29.93,ENE,64,0.0,0.0,99,0.00,,---,0.00,VWS V14.01,2013-07-13 07:46:00,
2013-07-13 03:50:00,72.1,72.1,29.93,ENE,64,0.0,0.0,100,0.00,,---,0.00,VWS V14.01,2013-07-13 07:50:00,
2013-07-13 03:51:00,72.1,72.1,29.93,ENE,64,0.0,0.0,100,0.00,,---,0.00,VWS V14.01,2013-07-13 07:51:00,
2013-07-13 03:56:00,72.3,72.3,29.93,ENE,64,0.0,0.0,100,0.00,,---,0.00,VWS V14.01,2013-07-13 07:56:00,
2013-07-13 04:00:00,72.3,72.3,29.94,ENE,64,0.0,0.0,100,0.00,,---,0.00,VWS V14.01,2013-07-13 08:00:00,
2013-07-13 04:01:00,72.3,72.3,29.93,ENE,64,0.0,0.0,100,0.00,,---,0.00,VWS V14.01,2013-07-13 08:01:00,
2013-07-13 04:06:00,72.3,72.3,29.94,ENE,64,0.0,0.0,100,0.00,,---,0.00,VWS V14.01,2013-07-13 08:06:00,
2013-07-13 04:10:00,72.3,72.3,29.94,ENE,64,0.0,0.0,100,0.00,,---,0.00,VWS V14.01,2013-07-13 08:10:00,
2013-07-13 04:11:00,72.3,72.3,29.94,ENE,64,0.0,0.0,100,0.00,,---,0.00,VWS V14.01,2013-07-13 08:11:00,
2013-07-13 04:16:00,72.3,72.3,29.94,ENE,64,0.0,0.0,100,0.00,,---,0.00,VWS V14.01,2013-07-13 08:16:00,
2013-07-13 04:20:00,72.3,72.3,29.94,ENE,64,0.0,0.0,100,0.00,,---,0.00,VWS V14.01,2013-07-13 08:20:00,
2013-07-13 04:21:00,72.3,72.3,29.94,ENE,64,0.0,0.0,100,0.00,,---,0.00,VWS V14.01,2013-07-13 08:21:00,
2013-07-13 04:26:00,72.3,72.3,29.94,ENE,64,0.0,0.0,100,0.00,,---,0.00,VWS V14.01,2013-07-13 08:26:00,
2013-07-13 04:30:00,72.3,72.3,29.93,ENE,64,0.0,0.0,100,0.00,,---,0.00,VWS V14.01,2013-07-13 08:30:00,
2013-07-13 04:31:00,72.3,72.3,29.94,ENE,64,0.0,0.0,100,0.00,,---,0.00,VWS V14.01,2013-07-13 08:31:00,
2013-07-13 04:36:00,72.3,72.3,29.93,ENE,64,0.0,0.0,100,0.00,,---,0.00,VWS V14.01,2013-07-13 08:36:00,
2013-07-13 04:40:00,72.5,72.5,29.93,ENE,64,0.0,1.0,100,0.00,,---,0.00,VWS V14.01,2013-07-13 08:40:00,
2013-07-13 04:41:00,72.5,72.5,29.93,ENE,64,0.0,1.0,100,0.00,,---,0.00,VWS V14.01,2013-07-13 08:41:00,
2013-07-13 04:46:00,72.5,72.5,29.93,ENE,64,0.0,0.0,100,0.00,,---,0.00,VWS V14.01,2013-07-13 08:46:00,
2013-07-13 04:50:00,72.3,72.3,29.93,ENE,64,0.0,0.0,100,0.00,,---,0.00,VWS V14.01,2013-07-13 08:50:00,
2013-07-13 04:51:00,72.5,72.5,29.93,ENE,64,0.0,0.0,100,0.00,,---,0.00,VWS V14.01,2013-07-13 08:51:00,
2013-07-13 04:56:00,72.3,72.3,29.93,ENE,64,0.0,0.0,100,0.00,,---,0.00,VWS V14.01,2013-07-13 08:56:00,
2013-07-13 05:00:00,72.5,72.5,29.92,ENE,64,2.0,4.0,100,0.00,,---,0.00,VWS V14.01,2013-07-13 09:00:00,
2013-07-13 05:01:00,72.5,72.5,29.93,ENE,64,2.0,4.0,100,0.00,,---,0.00,VWS V14.01,2013-07-13 09:01:00,
2013-07-13 05:06:00,72.5,72.5,29.92,ENE,64,0.0,2.0,100,0.00,,---,0.00,VWS V14.01,2013-07-13 09:06:00,
2013-07-13 05:10:00,72.5,72.5,29.92,ENE,64,0.0,2.0,100,0.00,,---,0.00,VWS V14.01,2013-07-13 09:10:00,
2013-07-13 05:11:00,72.5,72.5,29.92,ENE,64,0.0,2.0,100,0.00,,---,0.00,VWS V14.01,2013-07-13 09:11:00,
2013-07-13 05:16:00,72.5,72.5,29.92,ENE,64,0.0,2.0,100,0.00,,---,0.00,VWS V14.01,2013-07-13 09:16:00,
2013-07-13 05:20:00,72.5,72.5,29.93,ENE,64,0.0,2.0,100,0.00,,---,0.00,VWS V14.01,2013-07-13 09:20:00,
2013-07-13 05:21:00,72.5,72.5,29.93,ENE,64,0.0,2.0,100,0.00,,---,0.00,VWS V14.01,2013-07-13 09:21:00,
2013-07-13 05:26:00,72.5,72.5,29.93,ENE,64,0.0,0.0,100,0.00,,---,0.00,VWS V14.01,2013-07-13 09:26:00,
2013-07-13 05:30:00,72.5,72.5,29.94,ENE,64,0.0,0.0,100,0.00,,---,0.00,VWS V14.01,2013-07-13 09:30:00,
2013-07-13 05:31:00,72.5,72.5,29.93,ENE,64,0.0,0.0,100,0.00,,---,0.00,VWS V14.01,2013-07-13 09:31:00,
2013-07-13 05:36:00,72.5,72.5,29.94,ENE,64,0.0,0.0,100,0.00,,---,0.00,VWS V14.01,2013-07-13 09:36:00,
2013-07-13 05:40:00,72.5,72.5,29.94,ENE,64,0.0,0.0,100,0.00,,---,0.00,VWS V14.01,2013-07-13 09:40:00,
2013-07-13 05:41:00,72.5,72.5,29.94,ENE,64,0.0,0.0,100,0.00,,---,0.00,VWS V14.01,2013-07-13 09:41:00,
2013-07-13 05:46:00,72.5,72.5,29.94,ENE,62,0.0,5.0,100,0.00,,---,0.00,VWS V14.01,2013-07-13 09:46:00,
2013-07-13 05:50:00,72.5,72.5,29.94,ENE,66,0.0,5.0,100,0.00,,---,0.00,VWS V14.01,2013-07-13 09:50:00,
2013-07-13 05:51:00,72.5,72.5,29.94,ENE,66,0.0,5.0,100,0.00,,---,0.00,VWS V14.01,2013-07-13 09:51:00,
2013-07-13 05:56:00,72.5,72.5,29.94,ENE,69,0.0,3.0,100,0.00,,---,0.00,VWS V14.01,2013-07-13 09:56:00,
2013-07-13 06:00:00,72.5,72.5,29.94,NE,49,0.0,3.0,100,0.00,,---,0.00,VWS V14.01,2013-07-13 10:00:00,
2013-07-13 06:01:00,72.5,72.5,29.94,NE,49,0.0,3.0,100,0.00,,---,0.00,VWS V14.01,2013-07-13 10:01:00,
2013-07-13 06:06:00,72.5,72.5,29.94,NE,51,0.0,1.0,100,0.00,,---,0.00,VWS V14.01,2013-07-13 10:06:00,
2013-07-13 06:10:00,72.5,72.5,29.94,ENE,61,2.0,3.0,100,0.00,,---,0.00,VWS V14.01,2013-07-13 10:10:00,
2013-07-13 06:11:00,72.5,72.5,29.94,NE,51,0.0,1.0,100,0.00,,---,0.00,VWS V14.01,2013-07-13 10:11:00,
2013-07-13 06:16:00,72.5,72.5,29.94,ENE,62,3.0,3.0,100,0.00,,---,0.00,VWS V14.01,2013-07-13 10:16:00,
2013-07-13 06:20:00,72.5,72.5,29.94,NE,54,0.0,5.0,100,0.00,,---,0.00,VWS V14.01,2013-07-13 10:20:00,
2013-07-13 06:21:00,72.5,72.5,29.94,NE,54,0.0,5.0,100,0.00,,---,0.00,VWS V14.01,2013-07-13 10:21:00,
2013-07-13 06:26:00,72.3,72.3,29.94,NE,54,0.0,0.0,100,0.00,,---,0.00,VWS V14.01,2013-07-13 10:26:00,
2013-07-13 06:30:00,72.3,72.0,29.95,NE,55,0.0,2.0,99,0.00,,---,0.00,VWS V14.01,2013-07-13 10:30:00,
2013-07-13 06:31:00,72.3,72.3,29.94,NE,55,0.0,2.0,100,0.00,,---,0.00,VWS V14.01,2013-07-13 10:31:00,
2013-07-13 06:36:00,72.3,72.0,29.95,NE,55,0.0,0.0,99,0.00,,---,0.00,VWS V14.01,2013-07-13 10:36:00,
2013-07-13 06:40:00,72.3,72.3,29.95,NE,55,0.0,1.0,100,0.00,,---,0.00,VWS V14.01,2013-07-13 10:40:00,
2013-07-13 06:41:00,72.3,72.3,29.95,NE,55,0.0,1.0,100,0.00,,---,0.00,VWS V14.01,2013-07-13 10:41:00,
2013-07-13 06:46:00,72.3,72.3,29.95,NE,55,0.0,2.0,100,0.00,,---,0.00,VWS V14.01,2013-07-13 10:46:00,
2013-07-13 06:50:00,72.3,72.3,29.95,NNE,13,0.0,2.0,100,0.00,,---,0.00,VWS V14.01,2013-07-13 10:50:00,
2013-07-13 06:51:00,72.3,72.3,29.95,NNE,13,0.0,2.0,100,0.00,,---,0.00,VWS V14.01,2013-07-13 10:51:00,
2013-07-13 06:56:00,72.3,72.3,29.95,NNE,13,0.0,0.0,100,0.00,,---,0.00,VWS V14.01,2013-07-13 10:56:00,
2013-07-13 07:00:00,72.3,72.3,29.95,NNE,13,0.0,0.0,100,0.00,,---,0.00,VWS V14.01,2013-07-13 11:00:00,
2013-07-13 07:01:00,72.3,72.3,29.95,NNE,13,0.0,0.0,100,0.00,,---,0.00,VWS V14.01,2013-07-13 11:01:00,
2013-07-13 07:06:00,72.3,72.3,29.95,NNE,13,0.0,0.0,100,0.00,,---,0.00,VWS V14.01,2013-07-13 11:06:00,
2013-07-13 07:10:00,72.3,72.3,29.95,NNE,13,0.0,0.0,100,0.00,,---,0.00,VWS V14.01,2013-07-13 11:10:00,
2013-07-13 07:11:00,72.3,72.3,29.95,NNE,13,0.0,0.0,100,0.00,,---,0.00,VWS V14.01,2013-07-13 11:11:00,
2013-07-13 07:16:00,72.5,72.5,29.95,NNE,13,0.0,0.0,100,0.00,,---,0.00,VWS V14.01,2013-07-13 11:16:00,
2013-07-13 07:20:00,72.5,72.5,29.96,NNE,13,0.0,0.0,100,0.00,,---,0.00,VWS V14.01,2013-07-13 11:20:00,
2013-07-13 07:21:00,72.5,72.5,29.96,NNE,13,0.0,0.0,100,0.00,,---,0.00,VWS V14.01,2013-07-13 11:21:00,
2013-07-13 07:26:00,72.5,72.5,29.96,NNE,13,0.0,0.0,100,0.00,,---,0.00,VWS V14.01,2013-07-13 11:26:00,
2013-07-13 07:30:00,72.7,72.7,29.97,NNE,13,0.0,0.0,100,0.00,,---,0.00,VWS V14.01,2013-07-13 11:30:00,
2013-07-13 07:31:00,72.7,72.7,29.96,NNE,13,0.0,0.0,100,0.00,,---,0.00,VWS V14.01,2013-07-13 11:31:00,
2013-07-13 07:36:00,72.7,72.7,29.97,NNE,13,0.0,0.0,100,0.00,,---,0.00,VWS V14.01,2013-07-13 11:36:00,
2013-07-13 07:40:00,72.5,72.5,29.97,NNE,13,0.0,0.0,100,0.00,,---,0.00,VWS V14.01,2013-07-13 11:40:00,
2013-07-13 07:41:00,72.5,72.5,29.97,NNE,13,0.0,0.0,100,0.00,,---,0.00,VWS V14.01,2013-07-13 11:41:00,
2013-07-13 07:46:00,72.5,72.5,29.97,NNE,13,0.0,0.0,100,0.00,,---,0.00,VWS V14.01,2013-07-13 11:46:00,
2013-07-13 07:50:00,72.7,72.7,29.97,ENE,61,0.0,0.0,100,0.00,,---,0.00,VWS V14.01,2013-07-13 11:50:00,
2013-07-13 07:51:00,72.7,72.7,29.97,NNE,13,0.0,0.0,100,0.00,,---,0.00,VWS V14.01,2013-07-13 11:51:00,
2013-07-13 07:56:00,72.7,72.7,29.97,ENE,61,0.0,0.0,100,0.00,,---,0.00,VWS V14.01,2013-07-13 11:56:00,
2013-07-13 08:00:00,72.7,72.7,29.97,NW,326,0.0,0.0,100,0.00,,---,0.00,VWS V14.01,2013-07-13 12:00:00,
2013-07-13 08:01:00,72.7,72.7,29.97,North,6,0.0,0.0,100,0.00,,---,0.00,VWS V14.01,2013-07-13 12:01:00,
2013-07-13 08:06:00,72.7,72.7,29.97,NE,38,0.0,0.0,100,0.00,,---,0.00,VWS V14.01,2013-07-13 12:06:00,
2013-07-13 08:10:00,72.8,72.8,29.97,ENE,64,0.0,0.0,100,0.00,,---,0.00,VWS V14.01,2013-07-13 12:10:00,
2013-07-13 08:11:00,72.7,72.7,29.97,NE,38,0.0,0.0,100,0.00,,---,0.00,VWS V14.01,2013-07-13 12:11:00,
2013-07-13 08:16:00,72.8,72.8,29.97,ENE,75,2.0,3.0,100,0.00,,---,0.00,VWS V14.01,2013-07-13 12:16:00,
2013-07-13 08:20:00,72.8,72.8,29.98,NE,52,0.0,5.0,100,0.00,,---,0.00,VWS V14.01,2013-07-13 12:20:00,
2013-07-13 08:21:00,72.8,72.8,29.98,NE,52,2.0,5.0,100,0.00,,---,0.00,VWS V14.01,2013-07-13 12:21:00,
2013-07-13 08:26:00,72.8,72.8,29.98,ENE,59,0.0,6.0,100,0.00,,---,0.00,VWS V14.01,2013-07-13 12:26:00,
2013-07-13 08:30:00,73.0,73.0,29.97,ENE,75,0.0,6.0,100,0.00,,---,0.00,VWS V14.01,2013-07-13 12:30:00,
2013-07-13 08:31:00,73.0,73.0,29.98,NE,51,0.0,6.0,100,0.00,,---,0.00,VWS V14.01,2013-07-13 12:31:00,
2013-07-13 08:36:00,73.0,73.0,29.97,ENE,59,0.0,6.0,100,0.00,,---,0.00,VWS V14.01,2013-07-13 12:36:00,
2013-07-13 08:40:00,73.2,72.9,29.97,NE,54,3.0,6.0,99,0.00,,---,0.00,VWS V14.01,2013-07-13 12:40:00,
2013-07-13 08:41:00,73.2,73.2,29.97,ENE,64,0.0,6.0,100,0.00,,---,0.00,VWS V14.01,2013-07-13 12:41:00,
2013-07-13 08:46:00,73.2,72.9,29.97,NE,56,0.0,5.0,99,0.00,,---,0.00,VWS V14.01,2013-07-13 12:46:00,
2013-07-13 08:50:00,73.2,72.9,29.99,NE,47,0.0,7.0,99,0.00,,---,0.00,VWS V14.01,2013-07-13 12:50:00,
2013-07-13 08:51:00,73.2,72.9,29.99,NE,54,3.0,7.0,99,0.00,,---,0.00,VWS V14.01,2013-07-13 12:51:00,
2013-07-13 08:56:00,73.2,72.9,29.99,NE,47,0.0,5.0,99,0.00,,---,0.00,VWS V14.01,2013-07-13 12:56:00,
2013-07-13 09:00:00,73.2,72.6,29.99,East,100,0.0,5.0,98,0.00,,---,0.00,VWS V14.01,2013-07-13 13:00:00,
2013-07-13 09:01:00,73.2,72.6,29.99,ESE,102,0.0,5.0,98,0.00,,---,0.00,VWS V14.01,2013-07-13 13:01:00,
2013-07-13 09:06:00,73.2,72.6,29.99,East,100,0.0,0.0,98,0.00,,---,0.00,VWS V14.01,2013-07-13 13:06:00,
2013-07-13 09:10:00,73.2,72.9,29.99,SE,126,1.0,1.0,99,0.00,,---,0.00,VWS V14.01,2013-07-13 13:10:00,
2013-07-13 09:11:00,73.2,72.9,29.99,SE,126,0.0,0.0,99,0.00,,---,0.00,VWS V14.01,2013-07-13 13:11:00,
2013-07-13 09:16:00,73.2,72.9,29.99,South,174,0.0,2.0,99,0.00,,---,0.00,VWS V14.01,2013-07-13 13:16:00,
2013-07-13 09:20:00,73.2,72.9,30.00,ESE,113,0.0,2.0,99,0.00,,---,0.00,VWS V14.01,2013-07-13 13:20:00,
2013-07-13 09:21:00,73.2,72.9,30.00,ESE,112,2.0,2.0,99,0.00,,---,0.00,VWS V14.01,2013-07-13 13:21:00,
2013-07-13 09:26:00,73.2,72.9,30.00,NE,52,0.0,5.0,99,0.01,,---,0.01,VWS V14.01,2013-07-13 13:26:00,
2013-07-13 09:30:00,73.2,72.9,30.00,ESE,104,0.0,5.0,99,0.01,,---,0.01,VWS V14.01,2013-07-13 13:30:00,
2013-07-13 09:31:00,73.2,72.9,30.00,ESE,104,0.0,5.0,99,0.01,,---,0.01,VWS V14.01,2013-07-13 13:31:00,
2013-07-13 09:36:00,73.3,73.0,30.00,ESE,104,0.0,0.0,99,0.01,,---,0.01,VWS V14.01,2013-07-13 13:36:00,
2013-07-13 09:40:00,73.3,73.3,30.00,ESE,103,0.0,0.0,100,0.01,,---,0.01,VWS V14.01,2013-07-13 13:40:00,
2013-07-13 09:41:00,73.3,73.3,30.00,ESE,104,0.0,0.0,100,0.01,,---,0.01,VWS V14.01,2013-07-13 13:41:00,
2013-07-13 09:46:00,73.3,73.3,30.00,ESE,102,0.0,0.0,100,0.02,,---,0.02,VWS V14.01,2013-07-13 13:46:00,
2013-07-13 09:50:00,73.3,73.3,30.00,ESE,102,0.0,0.0,100,0.02,,---,0.02,VWS V14.01,2013-07-13 13:50:00,
2013-07-13 09:51:00,73.3,73.3,30.00,ESE,102,0.0,0.0,100,0.02,,---,0.02,VWS V14.01,2013-07-13 13:51:00,
2013-07-13 09:56:00,73.5,73.5,30.00,SE,138,1.0,3.0,100,0.02,,---,0.02,VWS V14.01,2013-07-13 13:56:00,
2013-07-13 10:00:00,73.5,73.5,30.00,East,93,0.0,3.0,100,0.02,,---,0.02,VWS V14.01,2013-07-13 14:00:00,
2013-07-13 10:01:00,73.5,73.5,30.00,East,93,0.0,3.0,100,0.02,,---,0.02,VWS V14.01,2013-07-13 14:01:00,
2013-07-13 10:06:00,73.5,73.5,30.00,NNE,31,0.0,0.0,100,0.02,,---,0.02,VWS V14.01,2013-07-13 14:06:00,
2013-07-13 10:10:00,73.5,73.5,30.00,NE,49,0.0,1.0,100,0.03,,---,0.03,VWS V14.01,2013-07-13 14:10:00,
2013-07-13 10:11:00,73.5,73.5,30.00,NE,49,0.0,1.0,100,0.03,,---,0.03,VWS V14.01,2013-07-13 14:11:00,
2013-07-13 10:16:00,73.5,73.5,30.00,NE,49,0.0,1.0,100,0.03,,---,0.03,VWS V14.01,2013-07-13 14:16:00,
2013-07-13 10:20:00,73.5,73.5,30.00,NE,49,0.0,1.0,100,0.05,,---,0.05,VWS V14.01,2013-07-13 14:20:00,
2013-07-13 10:21:00,73.5,73.5,30.00,NE,49,0.0,1.0,100,0.05,,---,0.05,VWS V14.01,2013-07-13 14:21:00,
2013-07-13 10:26:00,73.5,73.5,30.00,East,93,0.0,2.0,100,0.06,,---,0.06,VWS V14.01,2013-07-13 14:26:00,
2013-07-13 10:30:00,73.5,73.5,30.01,ESE,117,0.0,2.0,100,0.08,,---,0.08,VWS V14.01,2013-07-13 14:30:00,
2013-07-13 10:31:00,73.5,73.5,30.00,ESE,117,0.0,2.0,100,0.07,,---,0.07,VWS V14.01,2013-07-13 14:31:00,
2013-07-13 10:36:00,73.5,73.5,30.01,ESE,117,0.0,0.0,100,0.09,,---,0.10,VWS V14.01,2013-07-13 14:36:00,
2013-07-13 10:40:00,73.5,73.5,30.01,ESE,117,0.0,1.0,100,0.11,,---,0.12,VWS V14.01,2013-07-13 14:40:00,
2013-07-13 10:41:00,73.5,73.5,30.01,ESE,117,0.0,1.0,100,0.11,,---,0.12,VWS V14.01,2013-07-13 14:41:00,
2013-07-13 10:46:00,73.5,73.5,30.01,ESE,117,0.0,0.0,100,0.12,,---,0.13,VWS V14.01,2013-07-13 14:46:00,
2013-07-13 10:50:00,73.5,73.5,30.00,NE,55,0.0,0.0,100,0.14,,---,0.15,VWS V14.01,2013-07-13 14:50:00,
2013-07-13 10:51:00,73.5,73.5,30.00,NE,55,0.0,0.0,100,0.13,,---,0.14,VWS V14.01,2013-07-13 14:51:00,
2013-07-13 10:56:00,73.5,73.5,30.00,East,92,0.0,4.0,100,0.14,,---,0.16,VWS V14.01,2013-07-13 14:56:00,
2013-07-13 11:00:00,73.5,73.5,30.00,NE,37,0.0,4.0,100,0.15,,---,0.17,VWS V14.01,2013-07-13 15:00:00,
2013-07-13 11:01:00,73.5,73.5,30.00,ENE,76,0.0,4.0,100,0.15,,---,0.17,VWS V14.01,2013-07-13 15:01:00,
2013-07-13 11:06:00,73.5,73.5,30.00,NNE,32,0.0,5.0,100,0.15,,---,0.17,VWS V14.01,2013-07-13 15:06:00,
2013-07-13 11:10:00,73.5,73.5,30.00,NE,48,0.0,5.0,100,0.16,,---,0.18,VWS V14.01,2013-07-13 15:10:00,
2013-07-13 11:11:00,73.5,73.5,30.00,NE,48,1.0,5.0,100,0.16,,---,0.18,VWS V14.01,2013-07-13 15:11:00,
2013-07-13 11:16:00,73.5,73.5,30.00,NE,48,0.0,0.0,100,0.15,,---,0.18,VWS V14.01,2013-07-13 15:16:00,
2013-07-13 11:20:00,73.5,73.5,30.01,NE,47,0.0,2.0,100,0.16,,---,0.19,VWS V14.01,2013-07-13 15:20:00,
2013-07-13 11:21:00,73.5,73.5,30.01,NE,47,0.0,2.0,100,0.16,,---,0.19,VWS V14.01,2013-07-13 15:21:00,
2013-07-13 11:26:00,73.7,73.7,30.01,NNE,31,0.0,2.0,100,0.14,,---,0.19,VWS V14.01,2013-07-13 15:26:00,
2013-07-13 11:30:00,73.9,73.9,30.00,NE,48,0.0,2.0,100,0.14,,---,0.19,VWS V14.01,2013-07-13 15:30:00,
2013-07-13 11:31:00,73.9,73.9,30.01,NE,48,0.0,2.0,100,0.14,,---,0.19,VWS V14.01,2013-07-13 15:31:00,
2013-07-13 11:36:00,74.0,74.0,30.00,NNE,30,0.0,5.0,100,0.11,,---,0.19,VWS V14.01,2013-07-13 15:36:00,
2013-07-13 11:40:00,74.2,74.2,30.00,NE,52,2.0,5.0,100,0.11,,---,0.19,VWS V14.01,2013-07-13 15:40:00,
2013-07-13 11:41:00,74.2,74.2,30.00,NE,49,0.0,5.0,100,0.11,,---,0.19,VWS V14.01,2013-07-13 15:41:00,
2013-07-13 11:46:00,74.2,74.2,30.00,ENE,58,0.0,4.0,100,0.07,,---,0.19,VWS V14.01,2013-07-13 15:46:00,
2013-07-13 11:50:00,74.2,74.2,30.00,ENE,58,0.0,4.0,100,0.07,,---,0.19,VWS V14.01,2013-07-13 15:50:00,
2013-07-13 11:51:00,74.2,74.2,30.00,ENE,58,0.0,4.0,100,0.07,,---,0.19,VWS V14.01,2013-07-13 15:51:00,
2013-07-13 11:56:00,74.2,74.2,30.00,ENE,58,0.0,0.0,100,0.04,,---,0.19,VWS V14.01,2013-07-13 15:56:00,
2013-07-13 12:00:00,74.2,74.2,30.00,ENE,58,0.0,1.0,100,0.04,,---,0.19,VWS V14.01,2013-07-13 16:00:00,
2013-07-13 12:01:00,74.2,74.2,30.00,ENE,58,0.0,1.0,100,0.04,,---,0.19,VWS V14.01,2013-07-13 16:01:00,
2013-07-13 12:06:00,74.2,74.2,30.00,NNE,32,0.0,3.0,100,0.02,,---,0.19,VWS V14.01,2013-07-13 16:06:00,
2013-07-13 12:10:00,74.4,74.4,30.00,ENE,58,0.0,3.0,100,0.02,,---,0.19,VWS V14.01,2013-07-13 16:10:00,
2013-07-13 12:11:00,74.4,74.4,30.00,ENE,58,0.0,3.0,100,0.02,,---,0.19,VWS V14.01,2013-07-13 16:11:00,
2013-07-13 12:16:00,74.6,74.6,30.00,ENE,58,0.0,0.0,100,0.01,,---,0.19,VWS V14.01,2013-07-13 16:16:00,
2013-07-13 12:20:00,75.1,75.1,30.00,North,11,0.0,2.0,100,0.01,,---,0.19,VWS V14.01,2013-07-13 16:20:00,
2013-07-13 12:21:00,74.9,74.9,30.00,North,11,0.0,2.0,100,0.01,,---,0.19,VWS V14.01,2013-07-13 16:21:00,
2013-07-13 12:26:00,75.4,75.4,30.00,East,97,0.0,3.0,100,0.00,,---,0.19,VWS V14.01,2013-07-13 16:26:00,
2013-07-13 12:30:00,75.8,75.8,30.01,North,10,3.0,7.0,100,0.00,,---,0.19,VWS V14.01,2013-07-13 16:30:00,
2013-07-13 12:31:00,75.6,75.6,30.00,NNE,25,0.0,7.0,100,0.00,,---,0.19,VWS V14.01,2013-07-13 16:31:00,
2013-07-13 12:36:00,76.0,76.0,30.01,ENE,65,1.0,6.0,100,0.00,,---,0.19,VWS V14.01,2013-07-13 16:36:00,
2013-07-13 12:40:00,76.0,76.0,30.01,ENE,73,2.0,6.0,100,0.00,,---,0.19,VWS V14.01,2013-07-13 16:40:00,
2013-07-13 12:41:00,76.0,76.0,30.01,NNE,32,0.0,6.0,100,0.00,,---,0.19,VWS V14.01,2013-07-13 16:41:00,
2013-07-13 12:46:00,76.1,76.1,30.01,NE,38,0.0,7.0,100,0.00,,---,0.19,VWS V14.01,2013-07-13 16:46:00,
2013-07-13 12:50:00,76.0,76.0,30.01,ENE,75,0.0,7.0,100,0.00,,---,0.19,VWS V14.01,2013-07-13 16:50:00,
2013-07-13 12:51:00,76.0,76.0,30.01,ENE,75,0.0,7.0,100,0.00,,---,0.19,VWS V14.01,2013-07-13 16:51:00,
2013-07-13 12:56:00,76.0,76.0,30.01,ENE,75,0.0,0.0,100,0.00,,---,0.19,VWS V14.01,2013-07-13 16:56:00,
2013-07-13 13:00:00,76.0,76.0,30.01,ENE,75,0.0,0.0,100,0.00,,---,0.19,VWS V14.01,2013-07-13 17:00:00,
2013-07-13 13:01:00,76.0,76.0,30.01,ENE,75,0.0,0.0,100,0.00,,---,0.19,VWS V14.01,2013-07-13 17:01:00,
2013-07-13 13:06:00,75.8,75.8,30.01,ENE,75,0.0,0.0,100,0.00,,---,0.19,VWS V14.01,2013-07-13 17:06:00,
2013-07-13 13:10:00,75.8,75.8,30.01,ENE,75,0.0,0.0,100,0.00,,---,0.19,VWS V14.01,2013-07-13 17:10:00,
2013-07-13 13:11:00,75.8,75.8,30.01,ENE,75,0.0,0.0,100,0.00,,---,0.19,VWS V14.01,2013-07-13 17:11:00,
2013-07-13 13:16:00,75.8,75.8,30.01,ENE,75,0.0,0.0,100,0.00,,---,0.19,VWS V14.01,2013-07-13 17:16:00,
2013-07-13 13:20:00,75.8,75.8,30.00,ENE,61,0.0,5.0,100,0.00,,---,0.19,VWS V14.01,2013-07-13 17:20:00,
2013-07-13 13:21:00,75.8,75.8,30.00,ENE,61,2.0,5.0,100,0.00,,---,0.19,VWS V14.01,2013-07-13 17:21:00,
2013-07-13 13:26:00,75.8,75.8,30.00,ENE,61,0.0,2.0,100,0.00,,---,0.19,VWS V14.01,2013-07-13 17:26:00,
2013-07-13 13:30:00,75.8,75.8,30.00,NE,49,0.0,4.0,100,0.00,,---,0.19,VWS V14.01,2013-07-13 17:30:00,
2013-07-13 13:31:00,75.8,75.8,30.00,ENE,61,2.0,3.0,100,0.00,,---,0.19,VWS V14.01,2013-07-13 17:31:00,
2013-07-13 13:36:00,75.8,75.8,30.00,ENE,66,3.0,6.0,100,0.00,,---,0.19,VWS V14.01,2013-07-13 17:36:00,
2013-07-13 13:40:00,75.6,75.6,30.00,ENE,64,6.0,6.0,100,0.01,,---,0.20,VWS V14.01,2013-07-13 17:40:00,
2013-07-13 13:41:00,75.6,75.6,30.00,NE,34,3.0,6.0,100,0.01,,---,0.20,VWS V14.01,2013-07-13 17:41:00,
2013-07-13 13:46:00,75.8,75.8,30.00,NE,48,0.0,6.0,100,0.02,,---,0.21,VWS V14.01,2013-07-13 17:46:00,
2013-07-13 13:50:00,75.8,75.8,30.00,North,11,0.0,6.0,100,0.03,,---,0.22,VWS V14.01,2013-07-13 17:50:00,
2013-07-13 13:51:00,75.8,75.8,30.00,East,83,5.0,6.0,100,0.03,,---,0.22,VWS V14.01,2013-07-13 17:51:00,
2013-07-13 13:56:00,75.8,75.8,30.00,ENE,59,3.0,3.0,100,0.03,,---,0.22,VWS V14.01,2013-07-13 17:56:00,
2013-07-13 14:00:00,75.8,75.8,30.00,ENE,65,0.0,6.0,100,0.03,,---,0.22,VWS V14.01,2013-07-13 18:00:00,
2013-07-13 14:01:00,75.8,75.8,30.00,ENE,65,0.0,6.0,100,0.03,,---,0.22,VWS V14.01,2013-07-13 18:01:00,
2013-07-13 14:06:00,75.6,75.6,30.00,NE,45,1.0,4.0,100,0.04,,---,0.23,VWS V14.01,2013-07-13 18:06:00,
2013-07-13 14:10:00,75.4,75.4,30.00,NE,45,0.0,4.0,100,0.07,,---,0.26,VWS V14.01,2013-07-13 18:10:00,
2013-07-13 14:11:00,75.4,75.4,30.00,NE,45,0.0,4.0,100,0.06,,---,0.25,VWS V14.01,2013-07-13 18:11:00,
2013-07-13 14:16:00,75.3,75.3,30.00,NE,45,0.0,0.0,100,0.08,,---,0.27,VWS V14.01,2013-07-13 18:16:00,
2013-07-13 14:20:00,75.3,75.3,29.99,NE,45,0.0,0.0,100,0.08,,---,0.27,VWS V14.01,2013-07-13 18:20:00,
2013-07-13 14:21:00,75.3,75.3,29.99,NE,45,0.0,0.0,100,0.08,,---,0.27,VWS V14.01,2013-07-13 18:21:00,
2013-07-13 14:26:00,75.3,75.3,29.99,NE,45,0.0,0.0,100,0.08,,---,0.27,VWS V14.01,2013-07-13 18:26:00,
2013-07-13 14:30:00,75.1,75.1,29.99,NE,55,0.0,3.0,100,0.08,,---,0.27,VWS V14.01,2013-07-13 18:30:00,
2013-07-13 14:31:00,75.3,75.3,29.99,NE,55,3.0,3.0,100,0.08,,---,0.27,VWS V14.01,2013-07-13 18:31:00,
2013-07-13 14:36:00,75.1,75.1,29.99,NE,55,0.0,3.0,100,0.08,,---,0.27,VWS V14.01,2013-07-13 18:36:00,
2013-07-13 14:40:00,75.1,75.1,29.99,NNE,17,0.0,3.0,100,0.09,,---,0.28,VWS V14.01,2013-07-13 18:40:00,
2013-07-13 14:41:00,75.1,75.1,29.99,NE,45,2.0,3.0,100,0.09,,---,0.28,VWS V14.01,2013-07-13 18:41:00,
2013-07-13 14:46:00,75.1,75.1,29.99,East,79,0.0,3.0,100,0.08,,---,0.28,VWS V14.01,2013-07-13 18:46:00,
2013-07-13 14:50:00,74.9,74.9,29.99,NNE,27,2.0,5.0,100,0.09,,---,0.29,VWS V14.01,2013-07-13 18:50:00,
2013-07-13 14:51:00,75.1,75.1,29.99,NE,56,3.0,4.0,100,0.09,,---,0.29,VWS V14.01,2013-07-13 18:51:00,
2013-07-13 15:00:00,74.9,74.9,29.99,NE,41,4.0,4.0,100,0.07,,---,0.29,VWS V14.01,2013-07-13 19:00:00,
2013-07-13 15:10:00,74.9,74.9,29.99,NE,45,2.0,6.0,100,0.07,,---,0.29,VWS V14.01,2013-07-13 19:10:00,
2013-07-13 15:20:00,74.9,74.9,29.99,ENE,68,2.0,7.0,100,0.04,,---,0.30,VWS V14.01,2013-07-13 19:20:00,
2013-07-13 15:30:00,74.9,74.9,29.99,ENE,68,0.0,6.0,100,0.03,,---,0.30,VWS V14.01,2013-07-13 19:30:00,
2013-07-13 15:40:00,75.1,75.1,29.99,NE,45,1.0,7.0,100,0.03,,---,0.30,VWS V14.01,2013-07-13 19:40:00,
2013-07-13 15:50:00,75.6,75.6,29.99,ENE,68,1.0,7.0,100,0.02,,---,0.30,VWS V14.01,2013-07-13 19:50:00,
2013-07-13 16:00:00,76.0,76.0,29.98,NE,45,1.0,5.0,100,0.02,,---,0.31,VWS V14.01,2013-07-13 20:00:00,
2013-07-13 16:10:00,76.1,76.1,29.98,NE,45,2.0,6.0,100,0.02,,---,0.31,VWS V14.01,2013-07-13 20:10:00,
2013-07-13 16:20:00,76.0,76.0,29.98,NE,45,1.0,8.0,100,0.02,,---,0.31,VWS V14.01,2013-07-13 20:20:00,
2013-07-13 16:30:00,76.0,76.0,29.97,NE,45,1.0,5.0,100,0.03,,---,0.33,VWS V14.01,2013-07-13 20:30:00,
2013-07-13 16:40:00,75.8,75.8,29.97,NE,45,1.0,7.0,100,0.04,,---,0.34,VWS V14.01,2013-07-13 20:40:00,
2013-07-13 16:50:00,75.4,75.4,29.97,NNE,22,0.0,1.0,100,0.06,,---,0.36,VWS V14.01,2013-07-13 20:50:00,
2013-07-13 17:00:00,75.3,75.3,29.97,East,90,0.0,1.0,100,0.06,,---,0.36,VWS V14.01,2013-07-13 21:00:00,
2013-07-13 17:10:00,75.3,75.3,29.97,NE,45,0.0,5.0,100,0.05,,---,0.36,VWS V14.01,2013-07-13 21:10:00,
2013-07-13 17:20:00,75.6,75.6,29.98,NE,45,0.0,6.0,100,0.06,,---,0.37,VWS V14.01,2013-07-13 21:20:00,
2013-07-13 17:30:00,75.8,75.8,29.97,NE,45,0.0,6.0,100,0.06,,---,0.37,VWS V14.01,2013-07-13 21:30:00,
2013-07-13 17:40:00,75.8,75.8,29.97,East,90,2.0,8.0,100,0.04,,---,0.37,VWS V14.01,2013-07-13 21:40:00,
2013-07-13 18:00:00,75.8,75.8,29.97,East,90,2.0,8.0,100,0.04,,---,0.37,VWS V14.01,2013-07-13 22:00:00,
2013-07-13 18:05:00,76.0,76.0,29.97,NE,48,2.0,6.0,100,0.12,,---,0.48,VWS V14.01,2013-07-13 22:05:00,
2013-07-13 18:10:00,76.0,76.0,29.97,ESE,110,5.0,7.0,100,0.12,,---,0.48,VWS V14.01,2013-07-13 22:10:00,
2013-07-13 18:15:00,76.0,76.0,29.97,ENE,75,0.0,0.0,100,0.12,,---,0.48,VWS V14.01,2013-07-13 22:15:00,
2013-07-13 18:20:00,76.1,76.1,29.97,NE,54,2.0,5.0,100,0.12,,---,0.48,VWS V14.01,2013-07-13 22:20:00,
2013-07-13 18:25:00,76.3,76.3,29.97,East,93,0.0,3.0,100,0.11,,---,0.48,VWS V14.01,2013-07-13 22:25:00,
2013-07-13 18:30:00,76.3,76.3,29.97,NE,41,0.0,6.0,100,0.11,,---,0.48,VWS V14.01,2013-07-13 22:30:00,
2013-07-13 18:35:00,76.3,76.3,29.96,ESE,102,0.0,3.0,100,0.11,,---,0.48,VWS V14.01,2013-07-13 22:35:00,
2013-07-13 18:40:00,76.3,76.3,29.96,NE,37,0.0,3.0,100,0.11,,---,0.48,VWS V14.01,2013-07-13 22:40:00,
2013-07-13 18:45:00,76.3,76.3,29.96,ESE,116,0.0,5.0,100,0.11,,---,0.48,VWS V14.01,2013-07-13 22:45:00,
2013-07-13 18:50:00,76.1,76.1,29.96,NE,35,2.0,6.0,100,0.11,,---,0.48,VWS V14.01,2013-07-13 22:50:00,
2013-07-13 18:55:00,76.1,76.1,29.96,ENE,68,2.0,2.0,100,0.01,,---,0.48,VWS V14.01,2013-07-13 22:55:00,
2013-07-13 19:00:00,76.1,76.1,29.96,SE,126,2.0,3.0,100,0.01,,---,0.48,VWS V14.01,2013-07-13 23:00:00,
2013-07-13 19:05:00,76.1,76.1,29.97,NNE,25,0.0,0.0,100,0.01,,---,0.48,VWS V14.01,2013-07-13 23:05:00,
2013-07-13 19:10:00,76.1,76.1,29.97,NE,42,4.0,4.0,100,0.01,,---,0.48,VWS V14.01,2013-07-13 23:10:00,
2013-07-13 19:15:00,76.0,76.0,29.97,ESE,112,0.0,7.0,100,0.00,,---,0.48,VWS V14.01,2013-07-13 23:15:00,
2013-07-13 19:20:00,75.8,75.8,29.97,SE,127,2.0,16.0,100,0.00,,---,0.48,VWS V14.01,2013-07-13 23:20:00,
2013-07-13 19:25:00,75.8,75.8,29.97,ENE,78,5.0,12.0,100,0.00,,---,0.49,VWS V14.01,2013-07-13 23:25:00,
2013-07-13 19:30:00,75.8,75.8,29.97,ENE,68,2.0,14.0,100,0.09,,---,0.57,VWS V14.01,2013-07-13 23:30:00,
2013-07-13 19:35:00,75.6,75.6,29.99,ESE,109,9.0,13.0,100,0.12,,---,0.60,VWS V14.01,2013-07-13 23:35:00,
2013-07-13 19:40:00,75.6,75.6,29.99,SSE,160,2.0,13.0,100,0.13,,---,0.61,VWS V14.01,2013-07-13 23:40:00,
2013-07-13 19:45:00,75.6,75.6,29.99,SE,128,0.0,8.0,100,0.14,,---,0.62,VWS V14.01,2013-07-13 23:45:00,
2013-07-13 19:50:00,75.4,75.4,30.00,East,89,0.0,10.0,100,0.14,,---,0.62,VWS V14.01,2013-07-13 23:50:00,
2013-07-13 19:55:00,75.4,75.4,30.00,ESE,116,8.0,10.0,100,0.14,,---,0.62,VWS V14.01,2013-07-13 23:55:00,
2013-07-13 20:00:00,75.3,75.3,30.00,SE,127,0.0,10.0,100,0.14,,---,0.62,VWS V14.01,2013-07-14 00:00:00,
2013-07-13 20:05:00,75.3,75.3,30.00,SE,133,1.0,8.0,100,0.14,,---,0.62,VWS V14.01,2013-07-14 00:05:00,
2013-07-13 20:10:00,75.1,75.1,30.00,ESE,119,1.0,10.0,100,0.14,,---,0.62,VWS V14.01,2013-07-14 00:10:00,
2013-07-13 20:15:00,75.1,75.1,30.00,ESE,114,0.0,7.0,100,0.14,,---,0.62,VWS V14.01,2013-07-14 00:15:00,
2013-07-13 20:20:00,74.9,74.9,30.02,SSE,151,4.0,10.0,100,0.14,,---,0.62,VWS V14.01,2013-07-14 00:20:00,
2013-07-13 20:25:00,74.7,74.7,30.02,East,92,3.0,6.0,100,0.14,,---,0.62,VWS V14.01,2013-07-14 00:25:00,
2013-07-13 20:30:00,74.7,74.7,30.02,ESE,119,0.0,6.0,100,0.14,,---,0.62,VWS V14.01,2013-07-14 00:30:00,
2013-07-13 20:35:00,74.7,74.7,30.02,ENE,68,1.0,1.0,100,0.02,,---,0.62,VWS V14.01,2013-07-14 00:35:00,
2013-07-13 20:40:00,74.7,74.7,30.02,ESE,103,0.0,5.0,100,0.02,,---,0.62,VWS V14.01,2013-07-14 00:40:00,
2013-07-13 20:45:00,74.6,74.6,30.02,SE,133,2.0,5.0,100,0.00,,---,0.62,VWS V14.01,2013-07-14 00:45:00,
2013-07-13 20:50:00,74.6,74.6,30.02,East,99,0.0,6.0,100,0.00,,---,0.62,VWS V14.01,2013-07-14 00:50:00,
2013-07-13 20:55:00,74.6,74.6,30.02,SE,133,0.0,5.0,100,0.00,,---,0.62,VWS V14.01,2013-07-14 00:55:00,
2013-07-13 21:00:00,74.6,74.6,30.02,East,95,0.0,6.0,100,0.00,,---,0.62,VWS V14.01,2013-07-14 01:00:00,
2013-07-13 21:05:00,74.6,74.6,30.02,ESE,123,0.0,5.0,100,0.00,,---,0.62,VWS V14.01,2013-07-14 01:05:00,
2013-07-13 21:10:00,74.6,74.6,30.02,ESE,117,0.0,6.0,100,0.01,,---,0.63,VWS V14.01,2013-07-14 01:10:00,
2013-07-13 21:15:00,74.6,74.6,30.02,ESE,103,0.0,0.0,100,0.01,,---,0.63,VWS V14.01,2013-07-14 01:15:00,
2013-07-13 21:20:00,74.6,74.6,30.03,ESE,106,5.0,6.0,100,0.01,,---,0.63,VWS V14.01,2013-07-14 01:20:00,
2013-07-13 21:25:00,74.4,74.4,30.03,ESE,107,5.0,8.0,100,0.01,,---,0.63,VWS V14.01,2013-07-14 01:25:00,
2013-07-13 21:30:00,74.4,74.4,30.03,East,93,5.0,8.0,100,0.01,,---,0.63,VWS V14.01,2013-07-14 01:30:00,
2013-07-13 21:35:00,74.4,74.4,30.03,East,93,1.0,1.0,100,0.01,,---,0.63,VWS V14.01,2013-07-14 01:35:00,
2013-07-13 21:40:00,74.4,74.4,30.03,ESE,104,1.0,7.0,100,0.01,,---,0.63,VWS V14.01,2013-07-14 01:40:00,
2013-07-13 21:45:00,74.4,74.4,30.03,ESE,104,0.0,0.0,100,0.01,,---,0.63,VWS V14.01,2013-07-14 01:45:00,
2013-07-13 21:50:00,74.4,74.4,30.04,East,99,0.0,6.0,100,0.01,,---,0.63,VWS V14.01,2013-07-14 01:50:00,
2013-07-13 21:55:00,74.4,74.4,30.04,ESE,110,0.0,3.0,100,0.01,,---,0.63,VWS V14.01,2013-07-14 01:55:00,
2013-07-13 22:00:00,74.4,74.4,30.04,SE,131,0.0,5.0,100,0.01,,---,0.63,VWS V14.01,2013-07-14 02:00:00,
2013-07-13 22:05:00,74.4,74.4,30.05,SE,131,0.0,0.0,100,0.01,,---,0.63,VWS V14.01,2013-07-14 02:05:00,
2013-07-13 22:10:00,74.4,74.4,30.05,SSE,167,0.0,7.0,100,0.01,,---,0.63,VWS V14.01,2013-07-14 02:10:00,
2013-07-13 22:15:00,74.4,74.4,30.05,ESE,113,3.0,6.0,100,0.00,,---,0.63,VWS V14.01,2013-07-14 02:15:00,
2013-07-13 22:20:00,74.4,74.4,30.06,SE,126,1.0,8.0,100,0.00,,---,0.63,VWS V14.01,2013-07-14 02:20:00,
2013-07-13 22:25:00,74.4,74.4,30.06,ESE,104,0.0,5.0,100,0.00,,---,0.63,VWS V14.01,2013-07-14 02:25:00,
2013-07-13 22:30:00,74.4,74.4,30.06,ESE,117,0.0,8.0,100,0.00,,---,0.63,VWS V14.01,2013-07-14 02:30:00,
2013-07-13 22:35:00,74.4,74.4,30.06,ESE,120,5.0,6.0,100,0.00,,---,0.63,VWS V14.01,2013-07-14 02:35:00,
2013-07-13 22:40:00,74.4,74.4,30.06,ESE,109,5.0,7.0,100,0.00,,---,0.63,VWS V14.01,2013-07-14 02:40:00,
2013-07-13 22:45:00,74.2,74.2,30.06,ESE,112,4.0,7.0,100,0.00,,---,0.63,VWS V14.01,2013-07-14 02:45:00,
2013-07-13 22:50:00,74.2,74.2,30.06,SE,127,7.0,7.0,100,0.00,,---,0.63,VWS V14.01,2013-07-14 02:50:00,
2013-07-13 22:55:00,74.2,74.2,30.06,SE,127,0.0,2.0,100,0.00,,---,0.63,VWS V14.01,2013-07-14 02:55:00,
2013-07-13 23:00:00,74.0,74.0,30.06,ENE,69,1.0,4.0,100,0.00,,---,0.63,VWS V14.01,2013-07-14 03:00:00,
2013-07-13 23:05:00,74.0,74.0,30.06,SE,127,0.0,0.0,100,0.00,,---,0.63,VWS V14.01,2013-07-14 03:05:00,
2013-07-13 23:10:00,74.0,74.0,30.06,SE,137,3.0,6.0,100,0.00,,---,0.63,VWS V14.01,2013-07-14 03:10:00,
2013-07-13 23:15:00,73.9,73.9,30.06,SE,140,3.0,3.0,100,0.00,,---,0.63,VWS V14.01,2013-07-14 03:15:00,
2013-07-13 23:20:00,73.9,73.9,30.06,SE,124,1.0,5.0,100,0.00,,---,0.63,VWS V14.01,2013-07-14 03:20:00,
2013-07-13 23:25:00,73.9,73.9,30.06,ESE,107,0.0,8.0,100,0.00,,---,0.63,VWS V14.01,2013-07-14 03:25:00,
2013-07-13 23:30:00,73.7,73.7,30.06,ESE,107,5.0,10.0,100,0.00,,---,0.63,VWS V14.01,2013-07-14 03:30:00,
2013-07-13 23:35:00,73.7,73.7,30.06,ESE,120,4.0,11.0,100,0.00,,---,0.63,VWS V14.01,2013-07-14 03:35:00,
2013-07-13 23:40:00,73.7,73.7,30.06,SSE,152,6.0,13.0,100,0.00,,---,0.63,VWS V14.01,2013-07-14 03:40:00,
2013-07-13 23:45:00,73.5,73.5,30.06,SE,138,0.0,8.0,100,0.00,,---,0.63,VWS V14.01,2013-07-14 03:45:00,
2013-07-13 23:50:00,73.5,73.5,30.06,ESE,106,0.0,8.0,100,0.00,,---,0.63,VWS V14.01,2013-07-14 03:50:00,
2013-07-13 23:55:00,73.5,73.5,30.06,East,95,4.0,9.0,100,0.00,,---,0.63,VWS V14.01,2013-07-14 03:55:00,